Terminal Aerodrome Forecast
Issued by NWS Wilmington, OH

Current Version | Previous Version | Text Only | Print | Product List | Glossary On
Versions: 1 2 3 4 5 6 7 8 9 10 11 12 13 14 15 16 17 18 19 20 21 22 23 24 25 26 27
000
FTUS41 KILN 260200 AAA
TAFCVG
TAF AMD
KCVG 260205Z 2602/2706 06005KT 2SM -RA BR BKN003 OVC006
      TEMPO 2603/2605 01011G21KT 1SM -SNRA OVC003
     FM260500 36015G22KT 2SM -SN OVC005
     FM260800 34012G20KT P6SM OVC015
     FM261200 34012KT P6SM OVC015
     FM261700 32010KT P6SM SCT018 BKN250
     FM262200 34005KT P6SM OVC100=

USA.gov is the U.S. government's official web portal to all federal, state and local government web resources and services.